www.pogodaiklimat.ru

Погода и климат >> Архив погоды >> Россия >> город Москва >> Москва


АРХИВ ПОГОДЫ в Москве

Время (UTC), дата Ветер
(напр.,м/с)
 
Видим.   Явления Облачность Т
(С)
Тd
(С)
f
(%)
Тe
(С)
Тes
(С)
Комфортность P
(гПа)
Po
(гПа)
Тmin
(С)
Tmax
(С)
R
(мм)
R24
(мм)
S
(см)
09 18.06 10 км н/о +23.2 +4.3 29 +23 +30 комфорт 1011.1 992.9
12 18.06 10 км н/о +24.3 +4.5 28 +24 +29 комфорт 1010.4 992.3
15 18.06 С 2 10 км {ливн. осадки} 8/8 600 м
[Cu Sc]
+23.2 +5.1 31 +23 +24 комфорт 1010.6 992.4 0.0
18 18.06 штиль 0 10 км {ливн. осадки} 8/0
[Ci fib]
+18.4 +9.6 56 +19 +19 тепло 1010.6 992.1 +25.5
21 18.06 штиль 0 н/о 8/6 1000 м
[Sc Ac trans]
+16.2 +9.9 66 +16 +16 по сезону 1010.5 991.9
00 19.06 штиль 0 н/о 10/10 600 м
[Sc]
+15.4 +10.5 73 +15 +15 по сезону 1009.9 991.3
03 19.06 штиль 0 4000 м слабый ливневой дождь 10/10 300 м
[Cb cap]
+14.3 +12.9 91 +14 +14 по сезону 1009.9 991.2 +14.1 2
06 19.06 ЮЗ 1 4000 м слабый ливневой дождь 10/10 600 м
[Cb cap]
+15.3 +13.3 88 +16 +16 прохладно 1008.3 989.7 +14.1 2
09 19.06 штиль 0 4000 м дымка {ливн. осадки} 10/10 600 м
[Sc diur, vesp]
+16.5 +14.2 86 +16 +16 прохладно 1006.6 988.1
12 19.06 ЮЗ 1 10 км в посл. час ливневой дождь 8/8 600 м
[Sc diur, vesp]
+19.8 +14.3 71 +23 +26 комфорт 1005.4 987.2
15 19.06 СЗ 1 10 км {гроза, ливн. осадки} 8/8 600 м
[Cu Sc]
+18.0 +13.3 74 +19 +20 по сезону 1005.3 987.0 5
18 19.06 СЗ 1 10 км {гроза, ливн. осадки} 4/4 600 м
[Sc]
+15.9 +9.2 64 +17 +17 по сезону 1006.1 987.6 +20.2 5
21 19.06 штиль 0 н/о дымка 3/3 600 м
[Sc]
+12.5 +11.3 92 +12 +12 прохладно 1006.1 987.3
00 20.06 СЗ 1 н/о дымка 3/3 600 м
[Sc]
+12.7 +11.1 90 +13 +13 по сезону 1006.0 987.3
03 20.06 С 1 10 км 3/3 600 м
[Sc]
+14.1 +10.4 78 +14 +16 по сезону 1006.3 987.7 +12.3
06 20.06 СЗ 1 10 км 5/0
[Ci fib]
+18.9 +7.1 46 +20 +30 тепло 1006.5 988.2 +12.3
09 20.06 СЗ 2 10 км 8/4 600 м
[Cu med, cong Ci fib]
+21.0 +5.9 37 +23 +31 комфорт 1006.1 987.9
12 20.06 10 км н/о +22.2 +5.9 35 +23 +28 комфорт 1004.3 986.2
15 20.06 З 1 10 км 8/3 600 м
[Cu hum Ac trans]
+22.3 +6.1 35 +23 +24 комфорт 1002.0 984.0
18 20.06 Ю 1 10 км 10/10 600 м
[Sc]
+20.6 +8.9 47 +23 +23 комфорт 999.5 981.4 +23.0
21 20.06 Ю 1 н/о слабый ливневой дождь 10/10 600 м
[Cb cap]
+15.0 +13.8 93 +15 +15 по сезону 997.7 979.3
00 21.06 З 1 н/о дымка {ливн. осадки} 10/10 600 м
[Sc]
+14.9 +12.7 87 +15 +15 по сезону 996.5 978.1
03 21.06 З 2 10 км 8/8 600 м
[Cu Sc]
+14.5 +10.2 75 +14 +14 по сезону 996.9 978.5 +14.2 4
06 21.06 СЗ 1 10 км 8/8 600 м
[Cu Sc]
+13.8 +7.3 65 +14 +16 прохладно 998.3 979.7 +13.6 4
09 21.06 СЗ 2 10 км в посл. час ливневой дождь 9/9 600 м
[Cb cap]
+14.9 +7.5 61 +15 +16 холодно 999.3 980.8
12 21.06 СЗ 2 10 км в посл. час ливневой дождь 9/9 600 м
[Cb calv]
+15.3 +5.7 53 +15 +16 холодно 1000.4 982.0
15 21.06 СЗ 2
{11}
10 км слабый ливневой дождь 9/9 600 м
[Cb calv]
+12.6 +7.1 69 +12 +12 очень
холодно
1001.5 982.8 0.5
18 21.06 З 1 10 км {ливн. осадки} 4/1 600 м
[Sc diur, vesp Ci sp]
+12.4 +6.6 68 +13 +13 холодно 1001.0 982.3 +18.1 0.5
21 21.06 З 1 н/о 4/0
[Ci sp]
+10.9 +6.1 72 +11 +11 холодно 1001.2 982.5
00 22.06 З 1 н/о ясно +9.6 +5.9 78 +9 +9 холодно 1000.9 982.1
03 22.06 З 1 4000 м слабый ливневой дождь 10/10 300 м
[Cb cap]
+8.7 +7.4 92 +8 +8 очень
холодно
1001.9 983.0 +8.6 2
06 22.06 СЗ 1 4000 м в посл. час ливневой дождь 10/10 300 м
[Cb cap]
+10.5 +8.5 87 +10 +10 очень
холодно
1003.2 984.4 +8.6 4
09 22.06 З 2 10 км 9/8 600 м
[Cu Sc Ci fib]
+14.0 +7.2 64 +14 +16 холодно 1004.3 985.7
12 22.06 З 2 10 км 8/6 600 м
[Cu Sc Ac trans]
+15.4 +7.0 57 +15 +19 холодно 1004.4 985.9
15 22.06 ЮЗ 1 10 км в посл. час ливневой дождь 10/8 600 м
[Sc diur, vesp Ac trans Ci fib]
+12.8 +9.1 78 +13 +13 холодно 1005.8 987.1 3
18 22.06 штиль 0 10 км {ливн. осадки} 8/3 600 м
[Sc diur, vesp Ac trans Ci fib]
+11.4 +8.0 80 +11 +11 очень
холодно
1005.7 986.9 +16.7 1
21 22.06 З 1 н/о 4/0
[Ac trans]
+9.8 +6.7 81 +9 +9 холодно 1006.2 987.3
00 23.06 н/о н/о +8.3 +6.9 91 +7 +7 холодно 1006.0 987.0
03 23.06 СЗ 1 10 км дымка 8/8 600 м
[Cu hum]
+9.8 +7.5 86 +9 +10 очень
холодно
1006.0 987.1 +8.1
06 23.06 СЗ 1 10 км 9/9 600 м
[Sc]
+12.2 +7.6 73 +12 +13 холодно 1006.2 987.5 +8.1
09 23.06 З 1 10 км 9/8 600 м
[Cu med, cong Ci sp]
+15.1 +6.5 56 +16 +19 прохладно 1005.5 986.9
12 23.06 штиль 0 10 км в посл. час ливневой дождь 9/9 600 м
[Cb cap]
+13.1 +10.0 81 +13 +14 очень
холодно
1005.3 986.7
15 23.06 З 1 10 км 8/8 600 м
[Cu Sc]
+15.0 +6.8 58 +16 +16 прохладно 1004.9 986.3 3
18 23.06 10 км н/о +11.8 +6.9 72 +11 +11 очень
холодно
1005.5 986.7 +16.9 3
21 23.06 штиль 0 н/о дымка ясно +9.0 +7.4 90 +8 +8 очень
холодно
1005.8 986.8
00 24.06 4000 м дымка н/о +8.9 +7.7 92 +8 +8 холодно 1005.9 986.9
03 24.06 С 1 4000 м дымка ясно +10.6 +8.2 85 +10 +12 холодно 1006.3 987.4 +7.9
06 24.06 С 1 10 км 3/3 600 м
[Cu hum]
+15.7 +7.2 57 +16 +24 прохладно 1006.0 987.5 +7.9
09 24.06 СЗ 1 10 км 8/8 600 м
[Cu Sc]
+17.3 +6.3 48 +18 +22 прохладно 1006.2 987.8
12 24.06 СЗ 2 10 км 8/8 600 м
[Cu Sc]
+18.0 +4.7 41 +19 +21 прохладно 1006.2 987.8
15 24.06 З 1 10 км 8/8 600 м
[Sc]
+18.4 +5.5 43 +20 +21 по сезону 1006.5 988.1
18 24.06 штиль 0 10 км 5/0
[Ac trans Cs]
+15.3 +8.5 64 +15 +15 прохладно 1006.9 988.3 +19.3
21 24.06 штиль 0 н/о 3/0
[Ci fib]
+10.1 +8.0 87 +9 +9 очень
холодно
1007.6 988.7
00 25.06 штиль 0 4000 м дымка 10/0
[Cs]
+8.5 +7.5 93 +8 +8 холодно 1007.6 988.6
03 25.06 штиль 0 4000 м дымка 10/10 600 м
[Sc]
+11.0 +10.0 94 +10 +10 холодно 1006.9 988.1 +8.1
06 25.06 штиль 0 4000 м слабый ливневой дождь 10/10 600 м
[Cb cap]
+12.9 +11.0 88 +12 +12 холодно 1006.0 987.3 +8.1 0.7

 

Местоположение метеостанции Москва (город Москва, Россия): широта 55.83 долгота 37.62 высота над уровнем моря 156 м.

В архиве по умолчанию представлена погода в Москве за последнюю неделю. Архивные данные за месяц целиком и за предыдущие месяцы, начиная с января 2011 года, Вы можете получить, выбрав интересующий диапазон дат из раскрывающегося списка и нажав кнопку "Ввод!".

Внимание! Время в таблицах - всемирное. Для получения местного времени необходимо прибавить поправку, которая в Москве равна 3 ч.

Смотрите также архив погоды в соседних городах и на ближайших метеорологических станциях:

Погода в Москве (Балчуг) (город Москва, Россия) (9 км)
Погода в Москве (Тушино) (город Москва, Россия) (12 км)
Погода в Москве (Строгино) (город Москва, Россия) (14 км)
Погода в Шереметьево (Московская область, Россия) (20 км)
Погода в Немчиновке (город Москва, Россия) (21 км)
Погода в Подмосковной (Московская область, Россия) (29 км)
Погода в Внуково (Московская область, Россия) (33 км)
Погода в Михайловском (Московская область, Россия) (49 км)
Погода в Ново-Йерусалиме (Московская область, Россия) (51 км)
Погода в Домодедово (Московская область, Россия) (51 км)

Пояснения к столбцам:

Ветер - указаны скорость ветра в м/с - средняя за 10 мин, порывы в срок и между сроками (в фигурных скобках) и направление, откуда дует ветер: С - северный, СВ - северо-восточный, В - восточный, ЮВ - юго-восточный, Ю - южный, ЮЗ - юго-западный, З - западный, СЗ - северо-западный.
Видимость - горизонтальная дальность видимости в метрах или километрах. При видимости от 1 до 10 км при отсутствии осадков обычно наблюдается дымка, при ухудшении видимости до 1 км и менее - туман. В сухую погоду видимость может ухудшаться дымом, пылью или мглою.
Явления - указаны атмосферные явления, наблюдавшиеся в срок или в последний час перед сроком; фигурными скобками обозначены явления, наблюдавшиеся между сроками (за 1-3 часа до срока); квадратными скобками обозначены град или гололедные отложения с указанием их диаметра в мм.
Облачность - указаны через наклонную черту общая и нижняя облачность в баллах и высота нижней границы облаков в метрах; квадратными скобками обозначены формы облаков: Ci - перистые, Cs - перисто-слоистые, Cc - перисто-кучевые, Ac - высококучевые, As - высокослоистые, Sc - слоисто-кучевые, Ns - слоисто-дождевые, Cu - кучевые, Cb - кучево-дождевые. Подробнее классификацию облаков см. в Атласе облаков (PDF).
T - Температура воздуха - температура, измеренная на высоте 2 м над землей.
Td - Температура точки росы - температура, при понижении до которой содержащийся в воздухе водяной пар достигнет насыщения.
f - Относительная влажность воздуха - влажноcть воздуха, измеренная на высоте 2 м над землей.
Te - Эффективная температура - температура, которую ощущает одетый по сезону человек в тени. Характеристика душности погоды. При расчете учитывается влияние влажности воздуха и скорости ветра на теплоощущения человека.
Tes - Эффективная температура на солнце - температура, которую ощущает человек, с поправкой на солнечный нагрев. Характеристика знойности погоды. Зависит от высоты солнца над горизонтом, облачности и скорости ветра. Ночью, в пасмурную погоду, а также при ветре 12 м/с и более поправка равна нулю.
P - Атмосферное давление - приведенное к уровню моря атмосферное давление.
Po - Атмосферное давление - измеренное на уровне метеостанции атмосферное давление.
Tmin - Минимальная температура - минимум температуры воздуха на высоте 2 м над землей.
Tmax - Максимальная температура - максимум температуры воздуха на высоте 2 м над землей.
R - Количество осадков - Количество выпавших осадков за период времени, мм. При наведении курсора мыши на число - период времени, за который выпало указанное количество осадков.
R24 - Количество осадков - Количество выпавших осадков за 24 часа, мм.
S - Снежный покров - Высота снежного покрова, см. При наведении курсора мыши на число - состояние снежного покрова и степень покрытия местности в баллах.